Regional Weather Roundup
Issued by NWS Bismarck, ND

Home | Current Version | Previous Version | Text Only | Print | Product List | Glossary On
Versions: 1 2 3 4 5 6 7 8 9 10 11 12 13 14 15 16 17 18 19 20 21 22 23 24 25 26 27 28 29 30 31 32 33 34 35 36 37 38 39 40 41 42 43 44 45 46 47 48 49 50
000
ASUS43 KBIS 271102
RWRBIS

NWR BROADCAST TEXT
NATIONAL WEATHER SERVICE BISMARCK ND
500 AM CST MON FEB 27 2017

NOTE: "FAIR" INDICATES FEW OR NO CLOUDS BELOW 12,000 FEET WITH NO
SIGNIFICANT WEATHER AND/OR OBSTRUCTIONS TO VISIBILITY.


CITY           SKY/WX    TMP DP  RH WIND       PRES   REMARKS
WILLISTON      LGT SNOW  13   8  81 NE9       29.81R WCI   1
MINOT          MOCLDY    14   9  80 NW8       29.80S WCI   3
MINOT AFB      FAIR      10   6  82 NW8       29.80S WCI  -1
BISMARCK       FAIR      10   7  87 NE5       29.84S WCI   2
DICKINSON      LGT SNOW  18  15  88 S9        29.72S FOG     WCI   7
GARRISON         N/A      8   6  92 CALM      29.79F
HETTINGER ARPT CLOUDY    20  16  84 E7        29.74F FOG     WCI  11
JAMESTOWN      CLOUDY    20  18  92 CALM      29.84F
CARRINGTON     FAIR       9   5  85 S6        29.86S WCI  -1
HAZEN          CLOUDY   N/A N/A N/A SE5       29.83S
MANDAN         CLOUDY    12  10  92 SE3       29.82F
STANLEY        CLOUDY    10  10 100 N5        29.80S WCI   2
$$

CITY           SKY/WX    TMP DP  RH WIND       PRES   REMARKS
GRAND FORKS    FAIR      11   4  73 S9        29.89F WCI  -2
GRAND FORKS AF FAIR      11   5  78 SW8       29.88F WCI  -1
DEVILS LAKE    FAIR      10   7  87 SW5       29.84S WCI   2
FARGO          CLOUDY    22  15  75 CALM      29.91R
CAVALIER         N/A     12   9  85 SW6       29.86S WCI   3
GRAFTON        FAIR       9   5  85 S9        29.90F WCI  -5
GWINNER        CLOUDY    23  19  86 NE7       29.87S WCI  15
ROLLA          FAIR      10   9  92 SW7       29.78F WCI   0
$$

CITY           SKY/WX    TMP DP  RH WIND       PRES   REMARKS
ABERDEEN       CLOUDY    22  18  85 NE7       29.85S WCI  13
MOBRIDGE       CLOUDY    24  18  77 E8        29.77F WCI  15
BUFFALO          N/A     21  19  92 S7        29.61F WCI  12
RAPID CITY     FAIR      21  13  71 S10       29.66F WCI  10
GLASGOW        LGT SNOW  15  11  83 NE9       29.76F FOG     WCI   3
SIDNEY         LGT SNOW  17  14  88 NE10      29.78S FOG     WCI   5
WOLF POINT     LGT SNOW  18  12  79 NE9       29.80S WCI   6
GLENDIVE       LGT SNOW  19  17  92 NE10      29.73R FOG     WCI   7
MILES CITY     FAIR      24  19  81 NE14      29.63F WCI  12
BAKER          CLOUDY    22  18  85 SE16      29.65F WCI   8
$$

CITY           SKY/WX    TMP DP  RH WIND       PRES   REMARKS
BILLINGS       FAIR      19  16  88 N7        29.59R WCI  10
GREAT FALLS    LGT SNOW  12   9  87 NE8       29.65F FOG     WCI   0
$$




USA.gov is the U.S. government's official web portal to all federal, state and local government web resources and services.